SCP
0 0 0 0 0 0 0 0 0 0 0 0 0 0 0 0 0 0 0 0 0 0 0 0 0 0 0 0 0 0 0 0 0 0 0 0 0 0 0 0 0 0 0 0 0 0 0 0 0
0 0 0 0 0 0 0 0 0 0 0 0 0 0 0 0 0 0 0 0 0 0 0 0 0 0 0 0 0 0 0 0 0 0 0 0 0 0 0 0 0 0 0 0 0 0 0 0 0
0 0 0 0 0 0 0 0 0 0 0 0 0 0 0 0 0 0 0 0 0 0 0 0 0 0 0 0 0 0 0 0 0 0 0 0 0 0 0 0 0 0 0 0 0 0 0 0 0
0 0 0 0 0 -0 -0 0 0 0 0 0 0 0 0 0 0 0 0 0 0 0 0 0 0 0 0 0 0 0 0 0 0 0 0 0 0 0 0 0 0 0 0 0 0 0 0 0 0
0 0 0 0 0 0 0 0 0 0 0 0 0 0 0 0 0 0 0 0 0 0 0 0 0 0 0 0 0 0 0 0 0 0 0 0 0 0 0 0 0 0 0 0 0 0 0 0 0
0 0 0 0 0 0 0 0 0 0 0 0 0 0 0 0 0 0 0 0 0 0 0 0 0 0 0 0 0 0 0 0 0 0 0 0 0 0 0 0 0 0 0 0 0 0 0 0 0
0 0 0 0 0 0 0 0 0 0 0 0 0 0 0 0 0 0 0 0 0 0 0 0 0 0 0 0 0 0 0 0 0 0 0 0 0 0 0 0 0 0 0 0 0 0 0 0 0
0 0 0 0 0 0 0 0 0 0 0 0 0 0 0 0 0 0 0 0 0 0 0 0 0 0 0 0 0 0 0 0 0 0 0 0 0 0 0 0 0 0 0 0 0 0 0 0 0
0 0 0 0 0 0 0 0 0 0 0 0 0 0 0 0 0 0 0 0 0 0 0 0 0 0 0 0 0 0 0 0 0 0 0 0 0 0 0 0 0 0 0 0 0 0 0 0 0
0 0 0 0 0 0 0 0 0 0 0 0 0 0 0 0 0 0 0 0 0 0 0 0 0 0 0 0 0 0 0 0 0 0 0 0 0 0 0 0 0 0 0 0 0 0 0 0 0
0 0 0 0 0 0 0 0 0 0 0 0 0 0 0 0 0 0 0 0 0 0 0 0 0 0 0 0 0 0 0 0 0 0 0 0 0 0 0 0 0 0 0 0 0 0 0 0 0
0 0 0 0 0 0 0 0 0 0 0 0 0 0 0 0 0 0 0 0 0 0 0 0 0 0 0 0 0 0 0 0 0 0 0 0 0 0 0 0 0 0 0 0 0 0 0 0 0
0 0 0 0 0 0 0 0 0 0 0 0 0 0 0 0 0 0 0 0 0 0 0 0 0 0 0 0 0 0 0 0 0 0 0 0 0 0 0 0 0 0 0 0 0 0 0 0 0
0 0 0 0 0 0 0 0 0 0 0 0 0 0 0 0 0 0 0 0 0 0 0 0 0 0 0 0 0 0 0 0 0 0 0 0 0 0 0 0 0 0 0 0 0 0 0 0 0
0 0 0 0 0 0 0 0 0 0 0 0 0 0 0 0 0 0 0 0 0 0 0 0 0 0 0 0 0 0 0 0 0 0 0 0 0 0 0 0 0 0 0 0 0 0 0 0 0
0 0 0 0 0 0 0 0 0 0 0 0 0 0 0 0 0 0 0 0 0 0 0 0 0 0 0 0 0 0 0 0 0 0 0 0 0 0 0 0 0 0 0 0 0 0 0 0 0
0 0 0 0 0 0 0 0 0 0 0 0 0 0 0 0 0 0 0 0 0 0 0 0 0 0 0 0 0 0 0 0 0 0 0 0 0 0 0 0 0 0 0 0 0 0 0 0 0
0 0 0 0 0 0 0 0 0 0 0 0 0 0 0 0 0 0 0 0 0 0 0 0 0 0 0 0 0 0 0 0 0 0 0 0 0 0 0 0 0 0 0 0 0 0 0 0 0
0 0 0 0 0 0 0 0 0 0 0 0 0 0 0 0 0 0 0 0 0 0 0 0 0 0 0 0 0 0 0 0 0 0 0 0 0 0 0 0 0 0 0 0 0 0 0 0 0
0 0 0 0 0 0 0 0 0 0 0 0 0 0 0 0 0 0 0 0 0 0 0 0 0 0 0 0 0 0 0 0 0 0 0 0 0 0 0 0 0 0 0 0 0 0 0 0 0
0 0 0 0 0 0 0 0 0 0 0 0 0 0 0 0 0 0 0 0 0 0 0 0 0 0 0 0 0 0 0 0 0 0 0 0 0 0 0 0 0 0 0 0 0 0 0 0 0
0 0 0 0 0 0 0 0 0 0 0 0 0 0 0 0 0 0 0 0 0 0 0 0 0 0 0 0 0 0 0 0 0 0 0 0 0 0 0 0 0 0 0 0 0 0 0 0 0
0 0 0 0 0 0 0 0 0 0 0 0 0 0 0 0 0 0 0 0 0 0 0 0 0 0 0 0 0 0 0 0 0 0 0 0 0 0 0 0 0 0 0 0 0 0 0 0 0
0 0 0 0 0 0 0 0 0 0 0 0 0 0 0 0 0 0 0 0 0 0 0 0 0 0 0 0 0 0 0 0 0 0 0 0 0 0 0 0 0 0 0 0 0 0 0 0 0
0 0 0 0 0 0 0 0 0 0 0 0 0 0 0 0 0 0 0 0 0 0 0 0 0 0 0 0 0 0 0 0 0 0 0 0 0 0 0 0 0 0 0 0 0 0 0 0 0
0 0 0 0 0 0 0 0 0 0 0 0 0 0 0 0 0 0 0 0 0 0 0 0 0 0 0 0 0 0 0 0 0 0 0 0 0 0 0 0 0 0 0 0 0 0 0 0 0
0 0 0 0 0 0 0 0 0 0 0 0 0 0 0 0 0 0 0 0 0 0 0 0 0 0 0 0 0 0 0 0 0 0 0 0 0 0 0 0 0 0 0 0 0 0 0 0 0
0 0 0 0 0 0 0 0 0 0 0 0 0 0 0 0 0 0 0 0 0 0 0 0 0 0 0 0 0 0 0 0 0 0 0 0 0 0 0 0 0 0 0 0 0 0 0 0 0
0 0 0 0 0 0 0 0 0 0 0 0 0 0 0 0 0 0 0 0 0 0 0 0 0 0 0 0 0 0 0 0 0 0 0 0 0 0 0 0 0 0 0 0 0 0 0 0 0
0 0 0 0 0 0 0 0 0 0 0 0 0 0 0 0 0 0 0 0 0 0 0 0 0 0 0 0 0 0 0 0 0 0 0 0 0 0 0 0 0 0 0 0 0 0 0 0 0
Wind_Speed
6 9 6 2 3 2 6 6 8 8 6 6 7 8 9 8 7 11 5 5 5 6 8 11 15 16 17 18 19 20 21 21 22 23 23 23 23 23 24 24 24 24 25 25 26 26 26 26 26
7 6 4 3 3 2 5 6 10 8 8 7 5 7 9 8 9 9 6 4 6 7 8 9 14 15 17 18 18 19 20 21 21 22 22 23 23 23 23 23 24 24 24 24 25 25 25 26 26
9 8 4 2 4 4 7 10 13 11 8 5 5 8 7 7 8 6 5 4 7 7 7 9 13 14 16 17 18 18 19 20 20 21 22 22 22 22 23 23 23 24 24 24 24 24 25 25 26
5 4 3 3 7 6 9 13 12 10 5 6 9 8 5 6 5 7 5 5 8 7 6 7 12 13 14 16 17 17 18 19 20 20 21 22 22 22 22 22 23 23 24 24 24 24 24 24 25
3 4 2 5 6 8 11 13 11 9 7 6 8 8 6 7 10 9 6 6 7 6 5 6 10 11 12 14 15 16 17 18 19 19 21 21 21 21 22 22 23 24 24 25 25 25 25 25 25
3 3 3 6 8 8 8 8 7 10 8 5 7 9 7 8 8 8 7 6 6 5 5 4 9 10 10 11 13 14 15 17 18 18 20 21 21 22 22 22 23 24 25 25 26 26 25 26 26
3 3 2 8 8 7 8 5 4 7 7 6 5 8 8 9 8 7 6 7 6 5 5 4 5 7 10 11 11 13 14 16 17 18 20 21 21 22 23 23 24 25 25 26 26 26 26 27 26
4 2 3 6 8 6 9 4 3 4 6 4 1 6 9 13 10 7 6 6 6 5 5 4 5 5 4 6 10 12 13 15 17 18 20 21 20 20 22 21 24 25 26 26 27 27 28 27 26
3 2 3 4 6 9 10 5 4 5 7 3 4 6 13 18 12 8 6 6 6 6 5 5 5 4 5 5 9 9 11 13 14 12 18 16 8 8 11 18 24 25 26 26 26 27 28 27 24
4 2 6 6 5 10 10 7 7 5 7 5 7 10 15 13 10 9 8 7 6 6 4 5 4 4 4 5 5 3 4 5 5 5 7 5 6 7 12 18 22 24 24 24 25 27 24 19 10
6 6 5 6 6 10 8 8 8 7 6 8 12 14 13 11 10 9 6 7 6 6 4 4 3 3 4 3 3 2 2 3 4 5 6 5 5 5 6 5 9 10 14 9 13 13 9 10 10
6 7 7 5 4 7 7 7 6 7 2 3 14 17 15 12 10 8 7 7 7 6 5 3 2 3 3 3 3 3 2 2 3 4 5 4 3 4 5 4 5 5 5 6 6 6 9 10 11
6 5 7 5 3 5 5 5 4 6 5 5 13 16 14 12 10 7 7 7 6 6 5 4 2 3 2 2 2 3 3 2 3 3 3 4 3 4 5 5 5 6 5 5 6 7 8 9 10
8 8 7 5 4 3 4 5 3 5 8 9 12 12 12 11 10 8 7 7 7 6 5 4 3 2 1 1 2 2 2 2 2 2 4 4 3 4 4 5 5 5 5 5 6 8 8 7 7
9 8 5 5 5 4 3 6 9 6 10 10 11 11 12 11 9 9 9 8 7 7 5 5 2 0 1 2 2 2 2 2 2 2 3 4 4 4 4 5 5 5 5 6 6 8 6 8 9
6 5 5 8 7 5 3 7 7 12 11 10 10 10 11 11 10 9 9 8 7 7 5 4 1 1 1 2 2 2 2 2 2 2 2 3 4 5 4 4 5 6 5 5 6 6 6 7 8
6 7 5 7 8 7 6 6 6 10 11 10 11 11 11 11 11 10 10 9 8 7 6 5 4 2 1 2 2 3 2 2 2 2 2 3 4 4 4 4 5 6 5 5 8 7 6 8 8
2 4 3 7 10 8 8 9 7 11 11 11 11 11 11 13 13 10 10 10 9 8 6 5 4 2 0 1 2 2 2 2 2 2 2 3 3 4 4 5 5 6 5 6 6 8 8 7 8
5 5 6 3 7 6 9 11 9 14 12 11 11 12 12 12 11 12 11 11 10 8 7 6 4 2 1 0 1 2 2 3 3 3 3 3 4 5 5 5 5 5 6 7 8 8 9 8 7
5 6 5 5 6 5 7 10 9 13 16 13 12 12 12 11 11 12 12 11 10 10 8 6 5 3 1 1 1 2 3 3 4 3 2 3 4 5 6 5 5 5 6 8 8 8 8 10 7
7 2 4 4 2 7 4 7 5 4 9 11 11 10 10 12 12 12 13 12 10 10 9 7 5 3 3 1 1 3 3 3 3 3 3 4 5 5 5 6 5 6 6 6 8 8 9 10 10
3 5 2 4 5 3 5 4 6 6 6 9 11 12 12 10 10 11 14 13 12 9 8 7 6 5 4 2 2 2 3 3 4 3 4 5 5 5 6 6 6 6 6 7 8 9 8 9 11
2 2 3 5 5 5 5 4 4 5 7 12 13 13 12 10 10 10 13 13 11 10 9 7 6 6 5 4 3 3 4 3 3 4 5 5 5 5 6 6 5 6 6 7 8 9 8 7 9
3 3 5 3 3 5 5 3 4 7 7 7 10 11 11 10 9 8 10 11 9 10 9 7 6 6 5 5 4 4 4 4 5 5 5 4 4 4 6 6 5 6 6 7 8 8 9 8 9
4 3 3 3 3 3 3 3 7 6 6 5 7 8 8 9 9 9 11 12 11 11 9 8 7 7 6 6 5 4 4 5 5 5 5 5 4 4 6 7 6 6 7 7 7 8 9 9 9
2 3 3 3 3 2 3 6 6 7 6 4 3 4 6 7 8 9 11 11 11 11 10 9 9 8 6 5 5 4 4 3 3 4 4 5 4 5 6 6 7 8 8 9 7 7 8 8 8
3 2 1 3 4 4 6 6 3 3 5 5 6 7 8 8 9 9 10 11 11 11 11 10 9 7 6 6 5 5 4 4 5 5 5 5 5 6 7 7 8 7 7 7 7 6 8 8 7
3 4 1 3 3 5 7 7 6 7 9 10 10 10 11 10 9 10 10 11 11 10 9 9 8 7 6 6 5 4 4 5 5 4 6 6 6 6 7 7 7 7 7 7 7 7 8 8 8
5 4 4 4 2 3 5 8 4 9 7 6 8 9 10 11 11 11 10 10 10 9 9 8 8 7 6 6 5 4 4 4 5 5 6 6 6 6 7 7 8 7 7 7 7 8 9 9 10
2 5 6 4 5 5 4 11 5 6 5 5 5 5 7 9 10 10 10 10 10 10 9 9 8 8 7 6 5 4 5 5 5 6 6 5 6 6 7 7 7 8 8 7 7 9 10 10 11
Wind_Direction
236 234 232 248 246 106 89 91 108 117 84 62 50 62 70 45 46 115 118 72 67 53 43 22 22 25 26 26 26 25 23 22 20 18 17 15 14 13 12 11 9 7 5 3 1 358 356 354 353
258 241 251 234 251 134 107 127 114 91 103 111 85 88 88 81 88 106 109 87 79 65 54 27 28 28 28 27 26 24 22 20 18 16 14 12 11 10 9 8 7 4 2 0 358 356 353 351 349
268 259 250 247 37 46 120 112 103 103 121 114 74 41 65 99 102 94 105 116 90 76 70 34 32 31 30 28 25 23 20 17 15 13 11 9 8 7 6 6 4 2 359 357 355 353 350 348 346
273 251 236 53 72 47 106 114 122 125 109 104 112 92 68 51 81 108 125 103 86 78 80 51 35 33 30 27 25 21 17 14 12 11 9 7 5 4 4 3 1 359 356 354 352 350 348 345 343
238 259 194 99 88 84 98 120 140 139 132 138 121 107 102 91 100 114 109 88 85 82 81 71 43 33 29 25 21 17 14 12 9 9 7 5 3 2 1 1 359 356 353 352 349 347 345 343 340
260 266 251 125 114 106 110 136 158 120 116 123 120 115 121 134 128 125 124 108 94 89 72 62 44 32 23 21 18 12 10 8 7 7 6 3 1 360 359 360 356 353 351 350 347 344 343 341 339
297 298 11 102 126 142 136 151 151 125 139 151 137 115 133 153 137 140 132 115 99 88 75 62 55 28 10 9 14 6 7 6 5 6 5 2 1 359 357 358 353 351 350 348 345 343 343 340 338
313 281 106 122 149 142 127 137 73 108 106 78 101 145 159 154 143 143 129 122 121 106 83 52 56 40 11 357 360 3 4 4 4 4 3 3 360 356 353 353 348 348 348 346 344 344 342 340 341
282 246 115 98 142 128 134 134 79 45 100 116 54 39 125 135 145 148 157 164 139 107 90 70 49 33 12 353 359 359 359 1 3 2 360 1 352 347 347 345 346 347 346 345 344 343 342 343 340
341 31 62 29 45 130 152 145 141 156 145 149 113 95 116 136 154 174 184 155 123 99 82 75 54 35 18 359 354 340 350 357 355 2 358 351 351 340 350 345 343 344 342 344 341 340 343 341 332
34 64 86 46 51 121 143 135 159 175 187 182 164 148 146 159 173 186 168 128 115 108 88 79 69 54 30 352 341 330 335 355 348 359 353 354 351 340 347 342 337 337 337 339 333 336 334 329 327
77 65 85 81 71 117 138 140 178 218 86 109 153 153 160 175 184 183 163 135 129 119 112 90 71 73 42 357 322 320 342 348 337 347 351 360 345 340 341 332 328 329 328 328 330 328 323 322 321
95 98 84 94 99 111 129 170 206 215 119 101 129 150 169 183 185 178 148 136 141 133 127 117 90 69 37 331 315 343 336 334 328 339 351 359 347 339 335 327 323 321 322 327 325 318 317 318 315
109 116 118 125 111 127 184 193 221 218 136 141 148 166 180 189 184 164 150 168 161 139 130 112 78 48 356 346 344 318 316 310 331 337 346 348 352 339 328 321 317 315 320 320 313 312 312 309 308
131 127 140 160 167 160 230 233 211 177 147 161 169 180 188 195 187 175 172 178 156 136 135 128 144 82 352 355 325 303 283 310 320 327 337 341 356 333 326 313 311 311 314 312 308 305 303 308 312
181 175 185 180 177 141 214 267 187 147 161 178 183 190 194 200 193 183 176 166 148 146 149 138 153 3 347 346 303 284 290 317 310 330 326 341 344 327 320 309 306 306 310 307 304 299 309 306 302
203 231 175 158 186 160 213 263 130 146 175 190 193 199 197 202 201 190 177 162 156 159 153 161 157 206 301 318 294 301 309 319 318 317 313 327 324 318 317 303 297 308 308 303 307 316 305 303 304
349 325 349 161 182 191 219 247 189 174 190 201 200 205 204 205 203 194 177 165 160 155 158 175 170 177 63 338 325 310 318 318 300 288 291 315 311 314 312 296 300 307 303 302 303 303 301 299 301
333 315 297 99 149 204 243 255 231 179 194 209 209 208 212 211 199 189 176 164 158 160 173 180 174 162 131 79 328 310 310 299 292 282 294 312 308 306 298 296 298 301 299 298 300 302 304 302 298
279 286 306 105 156 212 272 270 252 181 195 204 213 215 213 209 199 187 174 169 170 174 176 172 169 153 162 155 254 254 267 270 269 269 304 306 300 294 298 296 295 294 295 297 298 302 300 304 308
267 279 354 341 265 213 266 278 194 168 186 200 217 226 221 208 201 188 177 176 175 178 171 165 157 173 196 178 247 278 287 289 300 323 315 294 289 287 289 289 290 292 294 295 298 299 304 308 307
321 55 358 300 295 244 192 281 198 181 200 214 218 222 227 220 202 188 178 178 178 170 145 149 167 188 199 197 233 271 284 287 291 291 282 286 290 295 295 290 292 293 291 291 298 308 301 304 308
355 54 285 278 268 276 203 247 209 168 216 222 217 218 219 214 203 189 176 175 168 149 146 158 174 194 199 200 229 251 265 273 283 289 289 295 295 294 294 291 296 295 292 291 297 301 300 298 297
312 268 237 259 263 255 179 218 245 197 203 192 194 201 203 199 194 180 161 156 148 141 147 161 182 200 198 202 225 240 261 280 292 296 298 296 291 289 291 297 298 294 291 292 295 298 300 298 299
223 270 242 226 221 224 135 220 250 176 160 173 184 186 185 181 176 167 157 158 155 154 159 173 190 204 200 201 221 238 252 265 273 284 289 292 291 290 290 300 293 290 289 293 297 302 299 298 303
254 279 309 286 292 319 193 230 248 153 150 153 161 168 171 177 175 172 167 164 163 165 170 179 193 200 197 199 218 233 245 251 258 269 276 281 280 280 284 290 289 290 293 301 300 301 299 302 303
276 224 31 305 286 272 252 232 197 134 171 191 203 206 209 199 184 176 169 167 170 173 176 182 188 192 194 198 214 231 241 256 261 269 273 271 271 284 291 292 289 291 294 296 299 295 298 300 300
268 317 249 237 266 276 277 255 224 194 218 212 212 214 213 199 186 179 177 176 175 172 174 178 182 191 192 194 212 224 229 246 256 267 269 270 275 283 288 289 290 292 294 296 297 296 295 299 299
185 218 228 257 272 244 276 267 222 169 175 190 206 209 201 192 187 183 180 175 169 164 167 175 185 189 191 197 208 226 240 251 259 262 266 272 279 285 288 291 293 295 294 293 293 294 295 295 297
214 218 197 210 232 213 255 271 247 171 162 184 215 206 186 182 179 177 173 169 169 171 173 181 187 188 190 191 197 223 241 251 256 263 274 282 284 285 287 290 292 295 297 291 288 290 294 289 289